Location: Cazarilh
(42.9578°N, 0.5819°E)
Time: 06:29:37
(UTC+00:00)

BREEZE-M DEB (TANK) - Pass Details

Date: 11 December 2019
Orbit: 297 x 14274 km, 49.6° (Epoch: 27 January)

Event Time Altitude Azimuth Distance (km) Brightness Sun altitude
Exits shadow 06:35:38 - 278° (W) 3,863 6.3 -7.7°
Reaches altitude 10° 06:37:01 10° 281° (W) 3,227 5.9 -7.5°
Maximum altitude 06:42:38 32° 345° (NNW) 981 3.6 -6.6°
Drops below altitude 10° 06:45:09 10° 53° (NE) 1,411 5.1 -6.2°
Sets 06:46:39 0° 67° (ENE) 2,073 6.2 -5.9°
